Volver al catálogo

USA 448

ActivoMilitarVLEO
NORAD 62347·PAYLOAD·🇺🇸 United States

Lanzado Dec 17, 2024 desde Vandenberg Space Force Base

Loading…

Próximos Pases (próximas 24 horas)

TLE

ObsoletoSource: Mike McCants

Época: Jul 9, 2026, 21:49 UTC

1 62347U 24243H   26190.90957692 0.00000000  00000-0  00000-0 0    05
2 62347  70.0210 225.1453 0002000  92.9600 267.0400 14.96713656    01

Sigue USA 448 en tiempo real con AllMySat

Download on the App Store